Weather History for Adak, AK

Change the Weather History Date:

Friday, November 11, 2011

  Actual Average Record
Temperature  
Mean Temperature 37 °F -  
Max Temperature 39 °F 42 °F 54 °F (1949)
Min Temperature 35 °F 32 °F 22 °F (1950)
Degree Days  
Heating Degree Days 28    
Moisture  
Dew Point 33 °F    
Average Humidity 86    
Maximum Humidity 100    
Minimum Humidity 70    
Precipitation  
Precipitation 0.00 in - - ()
Sea Level Pressure  
Sea Level Pressure 29.37 in    
Wind  
Wind Speed 22 mph (West)    
Max Wind Speed 33 mph    
Max Gust Speed 46 mph    
Visibility 10 miles    
Events      
Averages and records for this station are not official NWS values.
T = Trace of Precipitation, MM = Missing Value Source: NWS Daily Summary

Daily Weather History Graph

Daily Weather History Graph

Search for Another Location

Airport:

Trip Planner

Search our weather history database for the weather conditions in past years. The results will help you decide how hot, cold, wet, or windy it might be!

Date:

Astronomy

Nov. 11, 2011 Rise Set
Actual Time 8:59 AM HAST 6:01 PM HAST
Civil Twilight 8:22 AM HAST 6:38 PM HAST
Nautical Twilight 7:41 AM HAST 7:18 PM HAST
Astronomical Twilight 7:02 AM HAST 7:58 PM HAST
Moon 6:27 PM HAST (11/11) 10:13 AM HAST (11/11)
Length of Visible Light 10h 16m
Length of Day
9h 02m
Full, 99% of the Moon is Illuminated
Nov 11
Full
Nov 18
Last Quarter
Nov 24
New
Dec 1
First Quarter
Dec 10
Full

Hourly Weather History & Observations

Time (HAST) Temp. Windchill Dew Point Humidity Pressure Visibility Wind Dir Wind Speed Gust Speed Precip Events Conditions
12:16 AM 35.6 °F 25.2 °F 35.6 °F 100% 29.01 in 10.0 mi North 18.4 mph 25.3 mph N/A   Overcast
12:36 AM 35.6 °F 28.0 °F 33.8 °F 93% 29.01 in 10.0 mi NNW 10.4 mph - N/A   Overcast
12:56 AM 35.6 °F 26.6 °F 33.8 °F 93% 29.02 in 10.0 mi NW 13.8 mph 18.4 mph N/A   Overcast
1:16 AM 37.4 °F 29.8 °F 33.8 °F 87% 29.03 in 10.0 mi West 11.5 mph 21.9 mph N/A   Overcast
1:36 AM 37.4 °F 29.8 °F 33.8 °F 87% 29.05 in 10.0 mi NW 11.5 mph 21.9 mph N/A   Overcast
1:56 AM 37.4 °F 30.8 °F 33.8 °F 87% 29.07 in 10.0 mi WNW 9.2 mph - N/A   Overcast
2:16 AM 35.6 °F 24.0 °F 33.8 °F 93% 29.08 in 9.0 mi WNW 23.0 mph 32.2 mph N/A   Overcast
2:36 AM 35.6 °F 24.5 °F 33.8 °F 93% 29.09 in 8.0 mi NW 20.7 mph 29.9 mph N/A   Overcast
2:56 AM 35.6 °F 24.5 °F 32.0 °F 87% 29.11 in 9.0 mi WNW 20.7 mph 28.8 mph N/A   Overcast
3:16 AM 35.6 °F 24.8 °F 32.0 °F 87% 29.13 in 10.0 mi WNW 19.6 mph 24.2 mph N/A   Overcast
3:36 AM 35.6 °F 23.4 °F 33.8 °F 93% 29.14 in 10.0 mi NW 25.3 mph 29.9 mph N/A   Overcast
3:56 AM 35.6 °F 28.0 °F 32.0 °F 87% 29.16 in 10.0 mi NW 10.4 mph 27.6 mph N/A   Overcast
4:16 AM 35.6 °F 24.5 °F 32.0 °F 87% 29.18 in 10.0 mi West 20.7 mph 27.6 mph N/A   Overcast
4:36 AM 35.6 °F 24.0 °F 32.0 °F 87% 29.20 in 10.0 mi WNW 23.0 mph 33.4 mph N/A   Overcast
4:56 AM 35.6 °F 23.7 °F 30.2 °F 81% 29.22 in 10.0 mi WNW 24.2 mph 35.7 mph N/A   Overcast
5:16 AM 35.6 °F 23.0 °F 32.0 °F 87% 29.23 in 8.0 mi WNW 27.6 mph 39.1 mph N/A   Overcast
5:36 AM 35.6 °F 22.5 °F 32.0 °F 87% 29.25 in 5.0 mi WNW 29.9 mph 42.6 mph N/A   Overcast
5:56 AM 35.6 °F 22.5 °F 33.8 °F 93% 29.27 in 10.0 mi WNW 29.9 mph 42.6 mph N/A   Overcast
6:16 AM 35.6 °F 21.9 °F 32.0 °F 87% 29.28 in 10.0 mi WNW 33.4 mph 46.0 mph N/A   Mostly Cloudy
6:36 AM 35.6 °F 22.1 °F 32.0 °F 87% 29.30 in 10.0 mi West 32.2 mph 43.7 mph N/A   Mostly Cloudy
6:56 AM 35.6 °F 21.9 °F 32.0 °F 87% 29.32 in 10.0 mi West 33.4 mph 44.9 mph N/A   Mostly Cloudy
7:16 AM 35.6 °F 23.2 °F 33.8 °F 93% 29.34 in 7.0 mi West 26.5 mph 40.3 mph N/A   Overcast
7:36 AM 35.6 °F 22.1 °F 33.8 °F 93% 29.36 in 10.0 mi West 32.2 mph 41.4 mph N/A   Mostly Cloudy
7:56 AM 35.6 °F 22.3 °F 32.0 °F 87% 29.38 in 9.0 mi West 31.1 mph 41.4 mph N/A   Mostly Cloudy
8:16 AM 37.4 °F 25.4 °F 32.0 °F 81% 29.39 in 10.0 mi West 27.6 mph 36.8 mph N/A   Mostly Cloudy
8:36 AM 37.4 °F 25.2 °F 33.8 °F 87% 29.41 in 10.0 mi West 28.8 mph 33.4 mph N/A   Mostly Cloudy
8:56 AM 37.4 °F 26.4 °F 33.8 °F 87% 29.43 in 10.0 mi West 23.0 mph 34.5 mph N/A   Mostly Cloudy
9:16 AM 37.4 °F 25.4 °F 33.8 °F 87% 29.44 in 10.0 mi WSW 27.6 mph 33.4 mph N/A   Mostly Cloudy
9:36 AM 37.4 °F 25.2 °F 33.8 °F 87% 29.45 in 10.0 mi WSW 28.8 mph 32.2 mph N/A   Scattered Clouds
9:56 AM 37.4 °F 25.4 °F 35.6 °F 93% 29.48 in 5.0 mi West 27.6 mph 35.7 mph N/A   Mostly Cloudy
10:16 AM 37.4 °F 26.1 °F 33.8 °F 87% 29.49 in 10.0 mi West 24.2 mph 27.6 mph N/A   Mostly Cloudy
10:36 AM 37.4 °F 25.4 °F 28.4 °F 70% 29.50 in 10.0 mi West 27.6 mph 32.2 mph N/A   Mostly Cloudy
10:56 AM 37.4 °F 26.1 °F 33.8 °F 87% 29.51 in 10.0 mi WSW 24.2 mph 33.4 mph N/A   Partly Cloudy
11:16 AM 37.4 °F 24.6 °F 33.8 °F 87% 29.51 in 10.0 mi WSW 32.2 mph 38.0 mph N/A   Clear
11:36 AM 39.2 °F 28.3 °F 33.8 °F 81% 29.52 in 10.0 mi WSW 25.3 mph 31.1 mph N/A   Partly Cloudy
11:56 AM 39.2 °F 27.2 °F 33.8 °F 81% 29.53 in 10.0 mi WSW 31.1 mph 34.5 mph N/A   Partly Cloudy
12:16 PM 39.2 °F 28.0 °F 33.8 °F 81% 29.54 in 10.0 mi WSW 26.5 mph 40.3 mph N/A   Partly Cloudy
12:36 PM 39.2 °F 28.0 °F 33.8 °F 81% 29.54 in 10.0 mi West 26.5 mph 40.3 mph N/A   Mostly Cloudy
12:56 PM 39.2 °F 27.6 °F 33.8 °F 81% 29.55 in 10.0 mi West 28.8 mph 40.3 mph N/A   Mostly Cloudy
1:16 PM 39.2 °F 27.0 °F 33.8 °F 81% 29.56 in 10.0 mi WSW 32.2 mph 40.3 mph N/A   Mostly Cloudy
1:36 PM 39.2 °F 27.4 °F 33.8 °F 81% 29.56 in 10.0 mi WSW 29.9 mph 39.1 mph N/A   Mostly Cloudy
1:56 PM 39.2 °F 27.4 °F 33.8 °F 81% 29.57 in 10.0 mi West 29.9 mph 40.3 mph N/A   Overcast
2:16 PM 39.2 °F 28.0 °F 32.0 °F 75% 29.58 in 10.0 mi West 26.5 mph 40.3 mph N/A   Scattered Clouds
2:36 PM 39.2 °F 27.6 °F 33.8 °F 81% 29.59 in 10.0 mi West 28.8 mph 38.0 mph N/A   Partly Cloudy
2:56 PM 39.2 °F 27.6 °F 33.8 °F 81% 29.60 in 10.0 mi West 28.8 mph 36.8 mph N/A   Scattered Clouds
3:16 PM 39.2 °F 28.0 °F 33.8 °F 81% 29.60 in 10.0 mi WSW 26.5 mph 35.7 mph N/A   Mostly Cloudy
3:36 PM 39.2 °F 27.6 °F 33.8 °F 81% 29.61 in 10.0 mi WSW 28.8 mph 38.0 mph N/A   Mostly Cloudy
3:56 PM 39.2 °F 27.2 °F 33.8 °F 81% 29.61 in 10.0 mi West 31.1 mph 40.3 mph N/A   Overcast
4:16 PM 39.2 °F 28.3 °F 33.8 °F 81% 29.62 in 10.0 mi West 25.3 mph 39.1 mph N/A   Overcast
4:36 PM 37.4 °F 24.4 °F 33.8 °F 87% 29.62 in 9.0 mi WSW 33.4 mph 39.1 mph N/A   Overcast
4:56 PM 35.6 °F 23.2 °F 33.8 °F 93% 29.63 in 10.0 mi WSW 26.5 mph 29.9 mph N/A   Mostly Cloudy
5:16 PM 37.4 °F 24.4 °F 30.2 °F 75% 29.63 in 10.0 mi West 33.4 mph 40.3 mph N/A   Scattered Clouds
5:36 PM 37.4 °F 24.0 °F 32.0 °F 81% 29.63 in 10.0 mi WSW 35.7 mph 43.7 mph N/A   Clear
5:56 PM 37.4 °F 24.6 °F 32.0 °F 81% 29.64 in 10.0 mi WSW 32.2 mph 40.3 mph N/A   Clear
6:16 PM 37.4 °F 24.8 °F 32.0 °F 81% 29.65 in 10.0 mi WSW 31.1 mph 44.9 mph N/A   Partly Cloudy
6:36 PM 37.4 °F 25.0 °F 32.0 °F 81% 29.66 in 10.0 mi WSW 29.9 mph 39.1 mph N/A   Mostly Cloudy
6:56 PM 37.4 °F 24.6 °F 32.0 °F 81% 29.65 in 10.0 mi WSW 32.2 mph 42.6 mph N/A   Overcast
7:16 PM 37.4 °F 24.8 °F 32.0 °F 81% 29.66 in 10.0 mi WSW 31.1 mph 40.3 mph N/A   Overcast
7:36 PM 37.4 °F 24.0 °F 33.8 °F 87% 29.66 in 10.0 mi WSW 35.7 mph 42.6 mph N/A   Overcast
7:56 PM 39.2 °F 26.8 °F 33.8 °F 81% 29.66 in 10.0 mi WSW 33.4 mph 40.3 mph N/A   Overcast
8:16 PM 39.2 °F 27.6 °F 33.8 °F 81% 29.67 in 10.0 mi WSW 28.8 mph 40.3 mph N/A   Overcast
8:36 PM 39.2 °F 26.5 °F 33.8 °F 81% 29.67 in 10.0 mi WSW 35.7 mph 44.9 mph N/A   Overcast
8:56 PM 39.2 °F 26.8 °F 33.8 °F 81% 29.68 in 10.0 mi WSW 33.4 mph 42.6 mph N/A   Overcast
9:16 PM 35.6 °F 24.5 °F 33.8 °F 93% 29.73 in 5.0 mi West 20.7 mph 32.2 mph N/A   Overcast
9:36 PM 35.6 °F 24.0 °F 32.0 °F 87% 29.74 in 9.0 mi WNW 23.0 mph 29.9 mph N/A   Overcast
9:56 PM 35.6 °F 22.7 °F 30.2 °F 81% 29.76 in 10.0 mi WNW 28.8 mph 39.1 mph N/A   Overcast
10:16 PM 35.6 °F 22.5 °F 28.4 °F 75% 29.77 in 10.0 mi WNW 29.9 mph 36.8 mph N/A   Overcast
10:36 PM 35.6 °F 22.3 °F 28.4 °F 75% 29.78 in 10.0 mi WNW 31.1 mph 42.6 mph N/A   Overcast
10:56 PM 35.6 °F 22.5 °F 26.6 °F 70% 29.80 in 10.0 mi WNW 29.9 mph 40.3 mph N/A   Scattered Clouds
11:16 PM 33.8 °F 19.9 °F 24.8 °F 70% 29.82 in 10.0 mi WNW 31.1 mph 42.6 mph N/A   Partly Cloudy
11:36 PM 33.8 °F 19.9 °F 23.0 °F 65% 29.83 in 10.0 mi West 31.1 mph 40.3 mph N/A   Clear
11:56 PM 33.8 °F 18.5 °F 21.2 °F 60% 29.84 in 10.0 mi WNW 39.1 mph 47.2 mph N/A   Partly Cloudy